Location: Goettingen
(51.5300°N, 9.9433°E)
Time: 10:46:20
(UTC+02:00)

ISS - Pass Details

Date: 20 May 2019
Orbit: 407 x 410 km, 51.6° (Epoch: 21 May)

Event Time Altitude Azimuth Distance (km) Brightness Sun altitude
Rises 04:26:49 0° 278° (W) 2,338 -0.3 -7.4°
Reaches altitude 10° 04:30:05 10° 243° (WSW) 1,472 -1.6 -7.0°
Maximum altitude 04:31:13 11° 222° (SW) 1,389 -1.8 -6.9°
Drops below altitude 10° 04:32:21 10° 202° (SSW) 1,469 -1.6 -6.8°
Sets 04:35:36 0° 167° (SSE) 2,325 -0.3 -6.4°
